Location: Spruce Knob
(38.6995°N, 79.5330°W)
Time: 21:33:23
(UTC-05:00)

Explorer 11/Cluster Stage 4 - Visible Passes

Search period start: 22 January 2022 00:00
Search period end: 01 February 2022 00:00
Orbit: 467 x 1255 km, 28.8° (Epoch: 22 January)

Date Brightness Start Highest point End Pass type
(mag) Time Alt. Az. Time Alt. Az. Time Alt. Az.
22 Jan 7.8 05:23:28 18° S 05:23:47 19° S 05:26:50 10° SE visible
23 Jan 7.9 05:12:57 18° SSE 05:12:57 18° SSE 05:15:22 10° SE visible
23 Jan 8.1 06:57:01 10° SW 07:00:07 20° S 07:03:39 10° SE visible
24 Jan 8.2 05:02:25 16° SSE 05:02:25 16° SSE 05:03:55 10° SE visible
24 Jan 8.1 06:45:58 10° SW 06:48:47 18° S 06:51:54 10° SE visible
25 Jan 8.5 04:51:52 13° SE 04:51:52 13° SE 04:52:29 10° SE visible
25 Jan 8.0 06:35:00 10° SW 06:37:25 16° S 06:40:04 10° SSE visible
26 Jan 8.0 06:24:05 10° SW 06:26:05 14° S 06:28:13 10° SSE visible
27 Jan 8.0 06:13:21 10° SW 06:14:44 12° SSW 06:16:10 10° S visible
